When you browse on this site, cookies collect data to enhance your experience and personalize the content and advertising you see.
Visit our Privacy Policy to learn more. By continuing to use the site, you agree to this use of cookies and data.
  • In Romania
  • List of Countries
  • For 7 days
  • Water Temperature
  • Satellite Maps
  • Weather Map
  • Weather Widgets
  • user-avatar
    Login

    Hourly Weather Bedford

    Today, 18 January, Friday

    Time Temperature Precipitation Wind Pressure Humidity
    00:00 +1°C° 0 mm 1 mps 761 mmHg 78%
    01:00 +1°C° 0 mm 1 mps 761 mmHg 78%
    02:00 +1°C° 0 mm 1 mps 760 mmHg 77%
    03:00 +1°C° 0 mm 1 mps 760 mmHg 77%
    04:00 -1°C° 0 mm 2 mps 760 mmHg 77%
    05:00 -1°C° 0 mm 2 mps 760 mmHg 77%
    06:00 -1°C° 0 mm 2 mps 760 mmHg 76%
    07:00 0°C° 0 mm 3 mps 760 mmHg 75%
    08:00 0°C° 0 mm 3 mps 759 mmHg 74%
    09:00 0°C° 0 mm 3 mps 759 mmHg 73%
    10:00 0°C° 0 mm 4 mps 759 mmHg 70%
    11:00 +1°C° 0 mm 5 mps 759 mmHg 68%
    12:00 +3°C° 0 mm 5 mps 759 mmHg 66%
    13:00 +2°C° 0 mm 5 mps 758 mmHg 68%
    14:00 +3°C° 0 mm 4 mps 758 mmHg 70%
    15:00 +3°C° 0 mm 4 mps 757 mmHg 72%
    16:00 +3°C° 0.1 mm 4 mps 757 mmHg 71%
    17:00 +2°C° 0.1 mm 5 mps 757 mmHg 69%
    18:00 +2°C° 0.1 mm 6 mps 756 mmHg 68%
    19:00 +1°C° 0.1 mm 6 mps 756 mmHg 69%
    20:00 +1°C° 0.1 mm 6 mps 756 mmHg 69%
    21:00 +1°C° 0.1 mm 5 mps 756 mmHg 70%
    22:00 +1°C° 0.7 mm 5 mps 756 mmHg 72%
    23:00 +1°C° 0.7 mm 5 mps 755 mmHg 74%

    Tomorrow, 19 January, Saturday

    Time Temperature Precipitation Wind Pressure Humidity
    00:00 +1°C° 0.7 mm 5 mps 755 mmHg 77%
    01:00 +1°C° 0.5 mm 5 mps 755 mmHg 78%
    02:00 +1°C° 0.5 mm 5 mps 755 mmHg 80%
    03:00 +1°C° 0.5 mm 5 mps 754 mmHg 81%
    04:00 +1°C° 0 mm 5 mps 754 mmHg 81%
    05:00 0°C° 0 mm 5 mps 754 mmHg 82%
    06:00 0°C° 0 mm 5 mps 753 mmHg 82%
    07:00 0°C° 0.4 mm 5 mps 753 mmHg 83%
    08:00 0°C° 0.4 mm 5 mps 753 mmHg 84%
    09:00 0°C° 0.4 mm 5 mps 753 mmHg 85%
    10:00 +1°C° 0.3 mm 5 mps 753 mmHg 87%
    11:00 +1°C° 0.3 mm 5 mps 753 mmHg 90%
    12:00 +1°C° 0.3 mm 5 mps 753 mmHg 92%
    13:00 +1°C° 0.1 mm 5 mps 753 mmHg 92%
    14:00 +3°C° 0.1 mm 4 mps 753 mmHg 93%
    15:00 +3°C° 0.1 mm 4 mps 753 mmHg 94%
    16:00 +1°C° 0 mm 4 mps 753 mmHg 95%
    17:00 +2°C° 0 mm 3 mps 753 mmHg 96%
    18:00 +2°C° 0 mm 3 mps 753 mmHg 96%
    19:00 +2°C° 0 mm 3 mps 753 mmHg 96%
    20:00 +2°C° 0 mm 3 mps 754 mmHg 96%
    21:00 +2°C° 0 mm 3 mps 754 mmHg 96%
    22:00 +3°C° 0 mm 2 mps 754 mmHg 96%
    23:00 +2°C° 0 mm 2 mps 755 mmHg 96%

    Day after tomorrow, 20 January, Sunday

    Time Temperature Precipitation Wind Pressure Humidity
    00:00 +2°C° 0 mm 2 mps 755 mmHg 96%
    01:00 +1°C° 0 mm 2 mps 755 mmHg 96%
    02:00 +2°C° 0 mm 1 mps 755 mmHg 96%
    03:00 +2°C° 0 mm 1 mps 756 mmHg 95%
    04:00 +2°C° 0 mm 1 mps 756 mmHg 95%
    05:00 +2°C° 0 mm 1 mps 757 mmHg 95%
    06:00 +1°C° 0 mm 1 mps 757 mmHg 95%
    07:00 +2°C° 0 mm 1 mps 758 mmHg 95%
    08:00 +2°C° 0 mm 1 mps 758 mmHg 95%
    09:00 +2°C° 0 mm 1 mps 759 mmHg 95%
    10:00 +3°C° 0 mm 1 mps 759 mmHg 93%
    11:00 +4°C° 0 mm 1 mps 760 mmHg 92%
    12:00 +5°C° 0 mm 1 mps 760 mmHg 90%
    13:00 +4°C° 0 mm 2 mps 761 mmHg 91%
    14:00 +4°C° 0 mm 2 mps 761 mmHg 93%
    15:00 +4°C° 0 mm 2 mps 761 mmHg 94%
    16:00 +3°C° 0 mm 2 mps 762 mmHg 95%
    17:00 +2°C° 0 mm 2 mps 762 mmHg 96%
    18:00 +1°C° 0 mm 2 mps 763 mmHg 97%
    19:00 +1°C° 0 mm 2 mps 763 mmHg 96%
    20:00 -1°C° 0 mm 2 mps 764 mmHg 96%
    21:00 +1°C° 0 mm 1 mps 765 mmHg 95%
    22:00 +1°C° 0 mm 1 mps 765 mmHg 95%
    23:00 +1°C° 0 mm 1 mps 765 mmHg 95%

    21 January, Monday

    Time Temperature Precipitation Wind Pressure Humidity
    00:00 -1°C° 0 mm 2 mps 766 mmHg 95%
    01:00 -1°C° 0 mm 2 mps 766 mmHg 95%
    02:00 -1°C° 0 mm 2 mps 766 mmHg 95%
    03:00 -1°C° 0 mm 2 mps 766 mmHg 95%
    04:00 -1°C° 0 mm 2 mps 766 mmHg 95%
    05:00 -1°C° 0 mm 2 mps 766 mmHg 96%
    06:00 +1°C° 0 mm 1 mps 766 mmHg 96%
    07:00 -1°C° 0 mm 2 mps 767 mmHg 96%
    08:00 -1°C° 0 mm 2 mps 767 mmHg 96%
    09:00 +1°C° 0 mm 2 mps 767 mmHg 96%
    10:00 +2°C° 0 mm 2 mps 767 mmHg 95%
    11:00 +3°C° 0 mm 2 mps 766 mmHg 93%
    12:00 +4°C° 0 mm 2 mps 766 mmHg 91%
    13:00 +4°C° 0 mm 2 mps 765 mmHg 91%
    14:00 +3°C° 0 mm 3 mps 764 mmHg 91%
    15:00 +3°C° 0 mm 3 mps 764 mmHg 91%
    16:00 +1°C° 0 mm 4 mps 763 mmHg 91%
    17:00 +1°C° 0 mm 4 mps 762 mmHg 91%
    18:00 0°C° 0 mm 5 mps 761 mmHg 91%
    19:00 +1°C° 0 mm 6 mps 760 mmHg 89%
    20:00 0°C° 0 mm 7 mps 759 mmHg 87%
    21:00 +1°C° 0 mm 8 mps 757 mmHg 85%
    22:00 +1°C° 0.7 mm 9 mps 756 mmHg 85%
    23:00 +2°C° 0.7 mm 10 mps 754 mmHg 86%

    22 January, Tuesday

    Time Temperature Precipitation Wind Pressure Humidity
    00:00 +2°C° 0.7 mm 10 mps 752 mmHg 86%
    01:00 +2°C° 0.7 mm 9 mps 752 mmHg 85%
    02:00 +2°C° 0.7 mm 7 mps 751 mmHg 85%
    03:00 +1°C° 0.7 mm 5 mps 750 mmHg 84%
    04:00 0°C° 0 mm 5 mps 750 mmHg 83%
    05:00 0°C° 0 mm 5 mps 750 mmHg 82%
    06:00 -2°C° 0 mm 6 mps 750 mmHg 81%
    07:00 -2°C° 0 mm 6 mps 750 mmHg 80%
    08:00 -2°C° 0 mm 6 mps 749 mmHg 80%
    09:00 -2°C° 0 mm 6 mps 749 mmHg 79%
    10:00 -1°C° 0 mm 7 mps 749 mmHg 77%
    11:00 0°C° 0 mm 7 mps 748 mmHg 75%
    12:00 0°C° 0 mm 7 mps 748 mmHg 73%
    13:00 0°C° 0.1 mm 7 mps 747 mmHg 72%
    14:00 0°C° 0.1 mm 7 mps 747 mmHg 72%
    15:00 -1°C° 0.1 mm 6 mps 746 mmHg 72%
    16:00 -1°C° 0 mm 6 mps 746 mmHg 74%
    17:00 -2°C° 0 mm 6 mps 746 mmHg 77%
    18:00 -2°C° 0 mm 5 mps 746 mmHg 79%
    19:00 -3°C° 0 mm 6 mps 746 mmHg 79%
    20:00 -3°C° 0 mm 6 mps 746 mmHg 80%
    21:00 -3°C° 0 mm 6 mps 746 mmHg 80%
    22:00 -3°C° 0 mm 6 mps 745 mmHg 81%
    23:00 -2°C° 0 mm 5 mps 745 mmHg 83%

    23 January, Wednesday

    Time Temperature Precipitation Wind Pressure Humidity
    00:00 -2°C° 0 mm 5 mps 745 mmHg 84%
    01:00 -2°C° 0 mm 5 mps 744 mmHg 84%
    02:00 -2°C° 0 mm 5 mps 744 mmHg 84%
    03:00 -2°C° 0 mm 5 mps 743 mmHg 85%
    04:00 -2°C° 0 mm 5 mps 743 mmHg 84%
    05:00 -2°C° 0 mm 5 mps 742 mmHg 84%
    06:00 -1°C° 0 mm 5 mps 742 mmHg 84%
    07:00 -1°C° 0.1 mm 5 mps 742 mmHg 85%
    08:00 -1°C° 0.1 mm 5 mps 742 mmHg 85%
    09:00 -1°C° 0.1 mm 5 mps 742 mmHg 85%
    10:00 0°C° 0.3 mm 5 mps 741 mmHg 85%
    11:00 0°C° 0.3 mm 4 mps 741 mmHg 84%
    12:00 +1°C° 0.3 mm 4 mps 740 mmHg 84%
    13:00 +1°C° 0.4 mm 5 mps 740 mmHg 84%
    14:00 0°C° 0.4 mm 5 mps 741 mmHg 83%
    15:00 -1°C° 0.4 mm 6 mps 741 mmHg 83%
    16:00 -1°C° 0 mm 6 mps 742 mmHg 83%
    17:00 -2°C° 0 mm 6 mps 743 mmHg 84%
    18:00 -2°C° 0 mm 5 mps 744 mmHg 84%
    19:00 -2°C° 0 mm 6 mps 745 mmHg 82%
    20:00 -2°C° 0 mm 6 mps 745 mmHg 81%
    21:00 -2°C° 0 mm 6 mps 746 mmHg 79%
    22:00 -2°C° 0.6 mm 7 mps 746 mmHg 82%
    23:00 -1°C° 0.6 mm 7 mps 746 mmHg 85%
    Show more